82.8°F
Current conditions from King Hill
Updated every 5 minutes
 
  Tuesday September 2, 2014

Station Historical Data
Daily Summary for February 25, 2012 Units:  Metric    English   Both
« Previous Day
Next Day »
Daily Weekly Monthly Yearly Custom
  High: Low: Average:
Temperature: 0.4 °C -8.2 °C -3.4 °C
Dew Point: 0.1 °C -12.7 °C -6.6 °C
Humidity: 100% 68% 79%
Wind Speed: 25.7km/h 0km/h 13km/h
Wind Gust: 45.1km/h - -
Wind- - West
Pressure: 1012.1 hPa 984.3 hPa -
Precipitation: 0 mm    
Historical Graphs
 
 
Tabular Data for February 25, 2012
Time Temperature Dew Point Pressure Wind Wind Speed Wind Gust Humidity Daily Rainfall
00:04 -0.1 °C -0.9 °C 986.3 hPa Calm     94% 0 mm
00:09 -0.1 °C -0.9 °C 986.3 hPa Calm     94% 0 mm
00:14 0 °C -0.8 °C 986.3 hPa Calm     94% 0 mm
00:19 0.1 °C 0.1 °C 986.3 hPa Calm     100% 0 mm
00:24 0.1 °C -0.7 °C 986.3 hPa Calm     94% 0 mm
00:29 0.2 °C -0.6 °C 986 hPa Calm     94% 0 mm
00:34 0.3 °C -0.5 °C 986 hPa Calm     94% 0 mm
00:39 0.3 °C -0.5 °C 986 hPa Calm     94% 0 mm
00:44 0.4 °C -0.4 °C 986 hPa Calm     94% 0 mm
00:49 0.4 °C -0.4 °C 986.3 hPa Calm     94% 0 mm
00:54 0.4 °C -0.4 °C 986 hPa Calm     94% 0 mm
00:59 0.4 °C -0.4 °C 985.7 hPa SSW 3.2 km/h 14.5 km/h 94% 0 mm
01:04 0.4 °C -0.4 °C 985.7 hPa SW 8 km/h 19.3 km/h 94% 0 mm
01:09 0.3 °C -0.5 °C 985.7 hPa SSW 3.2 km/h 19.3 km/h 94% 0 mm
01:14 0.3 °C -0.5 °C 985.7 hPa SW 1.6 km/h 12.9 km/h 94% 0 mm
01:19 0.3 °C -0.5 °C 985.3 hPa SW 1.6 km/h 12.9 km/h 94% 0 mm
01:24 0.3 °C -0.6 °C 985.3 hPa Calm   11.3 km/h 94% 0 mm
01:29 0.3 °C -0.6 °C 985.3 hPa SW 3.2 km/h 12.9 km/h 94% 0 mm
01:34 0.2 °C -0.6 °C 985.3 hPa SW 1.6 km/h 12.9 km/h 94% 0 mm
01:39 0.2 °C -0.6 °C 985.3 hPa SW 3.2 km/h 9.7 km/h 94% 0 mm
01:44 0.2 °C -0.7 °C 985.3 hPa SW 1.6 km/h 11.3 km/h 94% 0 mm
01:49 0.2 °C -0.7 °C 985.3 hPa Calm   11.3 km/h 94% 0 mm
01:54 0.1 °C -0.7 °C 985.3 hPa SSW 3.2 km/h 9.7 km/h 94% 0 mm
01:59 0.1 °C -0.7 °C 985 hPa SSW 3.2 km/h 8 km/h 94% 0 mm
02:04 0.1 °C -0.8 °C 985 hPa SSW 6.4 km/h 11.3 km/h 94% 0 mm
02:09 0.1 °C -0.8 °C 985 hPa SSW 6.4 km/h 11.3 km/h 94% 0 mm
02:14 0.1 °C -0.8 °C 985 hPa Calm   11.3 km/h 94% 0 mm
02:19 0.1 °C -0.8 °C 985 hPa Calm   8 km/h 94% 0 mm
02:24 0.1 °C -0.8 °C 985 hPa SSW 3.2 km/h 9.7 km/h 94% 0 mm
02:29 0 °C -0.8 °C 985 hPa SW 1.6 km/h 9.7 km/h 94% 0 mm
02:34 0 °C -0.8 °C 984.6 hPa SW 1.6 km/h 11.3 km/h 94% 0 mm
02:39 0 °C -0.8 °C 984.6 hPa Calm   11.3 km/h 94% 0 mm
02:44 0 °C -0.8 °C 984.6 hPa SSW 4.8 km/h 12.9 km/h 94% 0 mm
02:49 -0.1 °C -0.9 °C 984.6 hPa SSW 3.2 km/h 12.9 km/h 94% 0 mm
02:54 -0.1 °C -0.9 °C 984.3 hPa SSW 3.2 km/h 11.3 km/h 94% 0 mm
02:59 -0.1 °C -0.9 °C 984.6 hPa SSW 1.6 km/h 9.7 km/h 94% 0 mm
03:04 -0.1 °C -0.9 °C 984.3 hPa Calm   9.7 km/h 94% 0 mm
03:09 -0.1 °C -0.9 °C 984.3 hPa SSW 4.8 km/h 11.3 km/h 94% 0 mm
03:14 -0.2 °C -1 °C 984.3 hPa SSW 3.2 km/h 11.3 km/h 94% 0 mm
03:19 -0.2 °C -1 °C 984.3 hPa Calm   9.7 km/h 94% 0 mm
03:24 -0.2 °C -1.1 °C 984.3 hPa SSW 1.6 km/h 8 km/h 94% 0 mm
03:30 -0.2 °C -1.1 °C 984.3 hPa SSW 3.2 km/h 8 km/h 94% 0 mm
03:39 -0.3 °C -1.1 °C 984.3 hPa SSW 1.6 km/h 11.3 km/h 94% 0 mm
03:44 -0.3 °C -1.1 °C 984.3 hPa Calm   8 km/h 94% 0 mm
03:49 -0.3 °C -1.2 °C 984.3 hPa SW 1.6 km/h 4.8 km/h 94% 0 mm
03:54 -0.3 °C -1.2 °C 984.3 hPa Calm   9.7 km/h 94% 0 mm
03:59 -0.3 °C -1.3 °C 984.3 hPa Calm   9.7 km/h 93% 0 mm
04:04 -0.4 °C -1.4 °C 984.6 hPa SSW 3.2 km/h 9.7 km/h 93% 0 mm
04:09 -0.4 °C -1.4 °C 984.6 hPa SSW 3.2 km/h 9.7 km/h 93% 0 mm
04:14 -0.4 °C -1.4 °C 984.6 hPa WSW 4.8 km/h 12.9 km/h 93% 0 mm
04:19 -0.4 °C -1.6 °C 984.6 hPa Calm   14.5 km/h 92% 0 mm
04:24 -0.5 °C -1.8 °C 984.6 hPa Calm   14.5 km/h 91% 0 mm
04:29 -0.5 °C -1.9 °C 984.6 hPa SSW 1.6 km/h 9.7 km/h 90% 0 mm
04:34 -0.5 °C -1.9 °C 984.6 hPa Calm   8 km/h 90% 0 mm
04:39 -0.5 °C -1.9 °C 984.6 hPa SW 1.6 km/h 4.8 km/h 90% 0 mm
04:44 -0.5 °C -1.9 °C 984.6 hPa Calm   11.3 km/h 90% 0 mm
04:49 -0.6 °C -2.3 °C 984.6 hPa WSW 6.4 km/h 19.3 km/h 88% 0 mm
04:54 -0.6 °C -2.4 °C 985 hPa SW 9.7 km/h 19.3 km/h 87% 0 mm
04:59 -0.5 °C -2.9 °C 985 hPa WSW 6.4 km/h 22.5 km/h 84% 0 mm
05:04 -0.6 °C -2.9 °C 985 hPa SW 4.8 km/h 22.5 km/h 84% 0 mm
05:09 -0.6 °C -3.2 °C 985 hPa West 8 km/h 19.3 km/h 82% 0 mm
05:19 -0.7 °C -3.3 °C 985 hPa WSW 11.3 km/h 19.3 km/h 82% 0 mm
05:24 -0.7 °C -3.4 °C 985.3 hPa West 9.7 km/h 20.9 km/h 82% 0 mm
05:29 -0.8 °C -3.5 °C 985.3 hPa West 11.3 km/h 20.9 km/h 82% 0 mm
05:34 -0.8 °C -3.5 °C 985.3 hPa West 9.7 km/h 20.9 km/h 82% 0 mm
05:40 -0.8 °C -3.6 °C 985.3 hPa West 11.3 km/h 29 km/h 81% 0 mm
05:49 -0.7 °C -3.7 °C 985.7 hPa WSW 9.7 km/h 22.5 km/h 80% 0 mm
05:54 -0.7 °C -3.8 °C 986 hPa West 9.7 km/h 25.7 km/h 79% 0 mm
05:59 -0.8 °C -4.1 °C 985.7 hPa West 9.7 km/h 25.7 km/h 78% 0 mm
06:04 -0.9 °C -4.3 °C 986 hPa WSW 12.9 km/h 20.9 km/h 78% 0 mm
06:09 -1 °C -4.5 °C 986 hPa West 14.5 km/h 29 km/h 77% 0 mm
06:14 -1.1 °C -4.8 °C 986 hPa WSW 12.9 km/h 29 km/h 76% 0 mm
06:19 -1.2 °C -4.9 °C 986.3 hPa WSW 14.5 km/h 25.7 km/h 76% 0 mm
06:24 -1.2 °C -4.9 °C 986 hPa West 12.9 km/h 29 km/h 76% 0 mm
06:29 -1.3 °C -4.9 °C 986.3 hPa West 9.7 km/h 29 km/h 76% 0 mm
06:34 -1.3 °C -5.1 °C 986.3 hPa WSW 16.1 km/h 27.4 km/h 75% 0 mm
06:39 -1.3 °C -5.2 °C 986.3 hPa West 14.5 km/h 27.4 km/h 75% 0 mm
06:44 -1.4 °C -5.3 °C 986.3 hPa WSW 16.1 km/h 27.4 km/h 75% 0 mm
06:49 -1.4 °C -5.3 °C 986.3 hPa WSW 12.9 km/h 27.4 km/h 75% 0 mm
06:54 -1.4 °C -5.5 °C 986.7 hPa West 20.9 km/h 32.2 km/h 74% 0 mm
06:59 -1.4 °C -5.3 °C 986.7 hPa WSW 14.5 km/h 32.2 km/h 75% 0 mm
07:04 -1.4 °C -5.5 °C 986.7 hPa WSW 12.9 km/h 29 km/h 74% 0 mm
07:09 -1.4 °C -5.6 °C 987 hPa West 17.7 km/h 30.6 km/h 73% 0 mm
07:14 -1.4 °C -5.7 °C 987 hPa West 16.1 km/h 30.6 km/h 73% 0 mm
07:19 -1.4 °C -5.7 °C 987 hPa West 14.5 km/h 30.6 km/h 73% 0 mm
07:24 -1.5 °C -5.6 °C 987 hPa WSW 11.3 km/h 30.6 km/h 74% 0 mm
07:29 -1.6 °C -5.6 °C 987.4 hPa West 12.9 km/h 29 km/h 74% 0 mm
07:34 -1.7 °C -5.5 °C 987.4 hPa WSW 12.9 km/h 30.6 km/h 75% 0 mm
07:39 -1.8 °C -5.6 °C 987.4 hPa WSW 16.1 km/h 30.6 km/h 75% 0 mm
07:44 -1.9 °C -5.6 °C 987.4 hPa West 12.9 km/h 32.2 km/h 76% 0 mm
07:49 -1.9 °C -5.8 °C 987.4 hPa West 17.7 km/h 32.2 km/h 75% 0 mm
07:54 -1.9 °C -5.6 °C 987.4 hPa WSW 12.9 km/h 30.6 km/h 76% 0 mm
07:59 -1.9 °C -5.6 °C 987.7 hPa WSW 16.1 km/h 30.6 km/h 76% 0 mm
08:04 -2 °C -5.8 °C 987.7 hPa West 17.7 km/h 35.4 km/h 75% 0 mm
08:09 -2.1 °C -5.9 °C 987.7 hPa West 14.5 km/h 35.4 km/h 75% 0 mm
08:14 -2.1 °C -6.1 °C 987.7 hPa West 17.7 km/h 38.6 km/h 74% 0 mm
08:19 -2.2 °C -6.2 °C 987.7 hPa WSW 14.5 km/h 38.6 km/h 74% 0 mm
08:29 -2.3 °C -6.1 °C 988 hPa West 16.1 km/h 32.2 km/h 75% 0 mm
08:34 -2.3 °C -6.3 °C 988 hPa West 20.9 km/h 35.4 km/h 74% 0 mm
08:39 -2.4 °C -6.3 °C 988 hPa West 22.5 km/h 37 km/h 75% 0 mm
08:44 -2.5 °C -6.2 °C 988.4 hPa West 12.9 km/h 37 km/h 76% 0 mm
08:49 -2.6 °C -6.3 °C 988.4 hPa West 16.1 km/h 33.8 km/h 76% 0 mm
08:54 -2.7 °C -6.2 °C 988.4 hPa West 17.7 km/h 33.8 km/h 77% 0 mm
08:59 -2.8 °C -6.2 °C 988.4 hPa WSW 17.7 km/h 29 km/h 77% 0 mm
09:04 -2.8 °C -6.1 °C 988.7 hPa WSW 14.5 km/h 32.2 km/h 78% 0 mm
09:09 -2.9 °C -6 °C 988.4 hPa WSW 14.5 km/h 32.2 km/h 79% 0 mm
09:14 -2.9 °C -6.1 °C 988.7 hPa West 16.1 km/h 38.6 km/h 79% 0 mm
09:19 -2.9 °C -5.9 °C 988.7 hPa West 14.5 km/h 38.6 km/h 80% 0 mm
09:29 -3.2 °C -5.9 °C 989.1 hPa West 12.9 km/h 40.2 km/h 81% 0 mm
09:34 -3.3 °C -5.8 °C 989.4 hPa West 14.5 km/h 38.6 km/h 83% 0 mm
09:39 -3.3 °C -5.8 °C 989.4 hPa WSW 12.9 km/h 38.6 km/h 83% 0 mm
09:44 -3.3 °C -5.8 °C 989.4 hPa WSW 11.3 km/h 25.7 km/h 83% 0 mm
09:49 -3.2 °C -5.7 °C 989.4 hPa WSW 11.3 km/h 25.7 km/h 83% 0 mm
09:54 -3.2 °C -5.8 °C 989.4 hPa WSW 11.3 km/h 29 km/h 82% 0 mm
09:59 -3.2 °C -5.9 °C 989.4 hPa West 17.7 km/h 29 km/h 81% 0 mm
10:04 -3.2 °C -6.2 °C 989.4 hPa West 17.7 km/h 32.2 km/h 80% 0 mm
10:09 -3.3 °C -6.1 °C 989.4 hPa West 19.3 km/h 32.2 km/h 81% 0 mm
10:14 -3.3 °C -6.1 °C 989.4 hPa West 20.9 km/h 37 km/h 81% 0 mm
10:19 -3.3 °C -5.9 °C 989.7 hPa West 16.1 km/h 37 km/h 82% 0 mm
10:24 -3.3 °C -5.9 °C 989.7 hPa WSW 16.1 km/h 37 km/h 82% 0 mm
10:29 -3.4 °C -6 °C 989.7 hPa West 12.9 km/h 37 km/h 82% 0 mm
10:34 -3.3 °C -5.9 °C 989.7 hPa West 14.5 km/h 33.8 km/h 82% 0 mm
10:39 -3.3 °C -6.1 °C 989.7 hPa West 12.9 km/h 37 km/h 81% 0 mm
10:44 -3.3 °C -6.3 °C 990.1 hPa WSW 20.9 km/h 37 km/h 80% 0 mm
10:49 -3.3 °C -6.4 °C 990.1 hPa West 19.3 km/h 33.8 km/h 79% 0 mm
10:54 -3.2 °C -6.4 °C 990.4 hPa West 14.5 km/h 35.4 km/h 78% 0 mm
10:59 -3.1 °C -6.7 °C 990.4 hPa WSW 17.7 km/h 35.4 km/h 76% 0 mm
11:04 -3 °C -6.4 °C 990.4 hPa West 8 km/h 33.8 km/h 77% 0 mm
11:09 -3 °C -6.6 °C 990.7 hPa West 14.5 km/h 27.4 km/h 76% 0 mm
11:14 -3 °C -6.8 °C 990.7 hPa West 12.9 km/h 27.4 km/h 75% 0 mm
11:19 -2.9 °C -6.6 °C 991.1 hPa West 9.7 km/h 27.4 km/h 76% 0 mm
11:24 -2.9 °C -6.7 °C 991.1 hPa West 11.3 km/h 25.7 km/h 75% 0 mm
11:29 -2.9 °C -6.9 °C 991.1 hPa West 14.5 km/h 27.4 km/h 74% 0 mm
11:34 -2.9 °C -6.8 °C 991.1 hPa West 12.9 km/h 27.4 km/h 75% 0 mm
11:39 -2.9 °C -6.8 °C 991.1 hPa West 11.3 km/h 25.7 km/h 75% 0 mm
11:44 -2.9 °C -6.8 °C 991.4 hPa West 9.7 km/h 25.7 km/h 75% 0 mm
11:49 -3.1 °C -6.9 °C 991.4 hPa WNW 19.3 km/h 35.4 km/h 75% 0 mm
11:59 -3.2 °C -6.5 °C 991.4 hPa WNW 11.3 km/h 25.7 km/h 78% 0 mm
12:04 -3.2 °C -6.3 °C 991.4 hPa WSW 9.7 km/h 24.1 km/h 79% 0 mm
12:09 -3.3 °C -6.8 °C 991.8 hPa West 17.7 km/h 40.2 km/h 77% 0 mm
12:14 -3.4 °C -6.8 °C 991.8 hPa West 16.1 km/h 40.2 km/h 77% 0 mm
12:19 -3.5 °C -6.8 °C 991.8 hPa WNW 12.9 km/h 35.4 km/h 78% 0 mm
12:24 -3.5 °C -6.8 °C 991.8 hPa West 17.7 km/h 32.2 km/h 78% 0 mm
12:34 -3.5 °C -6.4 °C 992.1 hPa WNW 12.9 km/h 33.8 km/h 80% 0 mm
12:39 -3.6 °C -6.7 °C 992.4 hPa WNW 12.9 km/h 30.6 km/h 79% 0 mm
12:44 -3.6 °C -6.7 °C 992.1 hPa NW 12.9 km/h 30.6 km/h 79% 0 mm
12:49 -3.6 °C -7.1 °C 992.4 hPa WNW 11.3 km/h 30.6 km/h 77% 0 mm
12:54 -3.6 °C -7.2 °C 992.4 hPa WNW 14.5 km/h 29 km/h 76% 0 mm
12:59 -3.6 °C -7.1 °C 992.8 hPa WNW 14.5 km/h 27.4 km/h 77% 0 mm
13:04 -3.7 °C -7 °C 992.8 hPa WNW 11.3 km/h 20.9 km/h 78% 0 mm
13:09 -3.8 °C -6.9 °C 992.8 hPa WNW 20.9 km/h 33.8 km/h 79% 0 mm
13:14 -3.9 °C -7.1 °C 992.8 hPa West 11.3 km/h 33.8 km/h 79% 0 mm
13:19 -3.9 °C -7.2 °C 993.1 hPa WNW 19.3 km/h 33.8 km/h 78% 0 mm
13:24 -3.8 °C -7.4 °C 993.1 hPa West 14.5 km/h 33.8 km/h 76% 0 mm
13:29 -3.7 °C -7.4 °C 993.5 hPa West 12.9 km/h 33.8 km/h 75% 0 mm
13:39 -3.6 °C -7.9 °C 993.5 hPa WNW 14.5 km/h 29 km/h 72% 0 mm
13:44 -3.5 °C -7.8 °C 993.5 hPa WNW 11.3 km/h 20.9 km/h 72% 0 mm
13:49 -3.5 °C -7.8 °C 993.5 hPa WNW 8 km/h 27.4 km/h 72% 0 mm
13:54 -3.4 °C -7.6 °C 993.8 hPa West 6.4 km/h 27.4 km/h 73% 0 mm
13:59 -3.4 °C -7.6 °C 993.8 hPa West 11.3 km/h 20.9 km/h 73% 0 mm
14:04 -3.3 °C -7.5 °C 994.1 hPa NW 9.7 km/h 20.9 km/h 73% 0 mm
14:09 -3.4 °C -8.1 °C 994.1 hPa WNW 19.3 km/h 33.8 km/h 70% 0 mm
14:14 -3.6 °C -8.3 °C 994.1 hPa WNW 12.9 km/h 33.8 km/h 70% 0 mm
14:19 -3.7 °C -8.4 °C 994.5 hPa WNW 11.3 km/h 25.7 km/h 70% 0 mm
14:24 -3.8 °C -8.4 °C 994.5 hPa WNW 11.3 km/h 25.7 km/h 70% 0 mm
14:29 -3.8 °C -8.3 °C 994.8 hPa NW 8 km/h 22.5 km/h 71% 0 mm
14:34 -3.8 °C -8.5 °C 995.1 hPa West 19.3 km/h 35.4 km/h 70% 0 mm
14:39 -4.1 °C -8.8 °C 995.1 hPa WNW 14.5 km/h 35.4 km/h 70% 0 mm
14:44 -4.3 °C -8.9 °C 995.5 hPa WNW 14.5 km/h 29 km/h 70% 0 mm
14:49 -4.4 °C -9.1 °C 995.5 hPa NW 12.9 km/h 32.2 km/h 70% 0 mm
14:59 -4.4 °C -8.8 °C 995.5 hPa WNW 14.5 km/h 24.1 km/h 71% 0 mm
15:04 -4.3 °C -8.4 °C 995.5 hPa WNW 8 km/h 24.1 km/h 73% 0 mm
15:09 -4.4 °C -8.5 °C 995.8 hPa NW 9.7 km/h 20.9 km/h 73% 0 mm
15:14 -4.4 °C -8.4 °C 996.2 hPa WNW 11.3 km/h 20.9 km/h 74% 0 mm
15:19 -4.5 °C -8.4 °C 996.2 hPa WNW 9.7 km/h 24.1 km/h 74% 0 mm
15:24 -4.4 °C -8.4 °C 996.2 hPa WNW 14.5 km/h 25.7 km/h 74% 0 mm
15:29 -4.5 °C -8.9 °C 996.5 hPa WNW 22.5 km/h 33.8 km/h 71% 0 mm
15:34 -4.6 °C -9.2 °C 996.8 hPa WNW 16.1 km/h 35.4 km/h 70% 0 mm
15:44 -5 °C -9.3 °C 997.2 hPa WNW 20.9 km/h 32.2 km/h 72% 0 mm
15:49 -5.1 °C -9.2 °C 997.2 hPa WNW 9.7 km/h 32.2 km/h 73% 0 mm
15:54 -5.1 °C -9.3 °C 997.2 hPa West 11.3 km/h 24.1 km/h 72% 0 mm
15:59 -5 °C -9.3 °C 997.5 hPa WNW 9.7 km/h 24.1 km/h 72% 0 mm
16:04 -4.9 °C -9.4 °C 997.5 hPa WNW 8 km/h 20.9 km/h 71% 0 mm
16:09 -4.9 °C -9.3 °C 997.9 hPa NW 16.1 km/h 24.1 km/h 71% 0 mm
16:14 -4.9 °C -9.5 °C 997.9 hPa West 19.3 km/h 27.4 km/h 70% 0 mm
16:19 -4.9 °C -9.8 °C 998.2 hPa WNW 17.7 km/h 33.8 km/h 69% 0 mm
16:24 -5 °C -9.8 °C 998.2 hPa WNW 12.9 km/h 33.8 km/h 69% 0 mm
16:29 -5 °C -9.6 °C 998.2 hPa NW 8 km/h 25.7 km/h 70% 0 mm
16:39 -5.1 °C -9.7 °C 998.9 hPa WNW 19.3 km/h 27.4 km/h 70% 0 mm
16:44 -5.2 °C -10.2 °C 998.9 hPa WNW 22.5 km/h 32.2 km/h 68% 0 mm
16:49 -5.3 °C -10.3 °C 999.2 hPa WNW 17.7 km/h 32.2 km/h 68% 0 mm
16:54 -5.3 °C -10.1 °C 999.2 hPa WNW 9.7 km/h 29 km/h 69% 0 mm
16:59 -5.4 °C -10.2 °C 999.2 hPa WNW 11.3 km/h 24.1 km/h 69% 0 mm
17:04 -5.4 °C -10.2 °C 999.5 hPa WNW 11.3 km/h 29 km/h 69% 0 mm
17:09 -5.5 °C -10.1 °C 999.5 hPa WNW 6.4 km/h 29 km/h 70% 0 mm
17:14 -5.6 °C -9.8 °C 999.9 hPa WNW 9.7 km/h 20.9 km/h 72% 0 mm
17:19 -5.6 °C -9.8 °C 999.9 hPa West 9.7 km/h 22.5 km/h 72% 0 mm
17:24 -5.6 °C -9.8 °C 1000.2 hPa WNW 14.5 km/h 24.1 km/h 72% 0 mm
17:29 -5.6 °C -9.8 °C 1000.2 hPa WNW 11.3 km/h 24.1 km/h 72% 0 mm
17:34 -5.6 °C -9.8 °C 1000.6 hPa WNW 9.7 km/h 22.5 km/h 72% 0 mm
17:39 -5.6 °C -9.8 °C 1000.6 hPa WNW 12.9 km/h 30.6 km/h 72% 0 mm
17:44 -5.7 °C -9.9 °C 1000.9 hPa WNW 11.3 km/h 30.6 km/h 72% 0 mm
17:49 -5.7 °C -10.1 °C 1000.9 hPa WNW 16.1 km/h 25.7 km/h 71% 0 mm
17:54 -5.7 °C -10.1 °C 1001.2 hPa WNW 16.1 km/h 32.2 km/h 71% 0 mm
17:59 -5.7 °C -9.9 °C 1001.2 hPa WNW 12.9 km/h 32.2 km/h 72% 0 mm
18:04 -5.8 °C -9.8 °C 1001.2 hPa West 12.9 km/h 30.6 km/h 73% 0 mm
18:09 -5.9 °C -9.7 °C 1001.6 hPa WNW 19.3 km/h 32.2 km/h 75% 0 mm
18:14 -6.1 °C -9.5 °C 1001.6 hPa WNW 11.3 km/h 32.2 km/h 77% 0 mm
18:19 -6.2 °C -9.4 °C 1001.9 hPa WNW 17.7 km/h 32.2 km/h 78% 0 mm
18:24 -6.2 °C -9.4 °C 1001.9 hPa WNW 16.1 km/h 32.2 km/h 78% 0 mm
18:29 -6.2 °C -9.6 °C 1002.3 hPa WNW 19.3 km/h 30.6 km/h 77% 0 mm
18:34 -6.2 °C -9.4 °C 1002.3 hPa WNW 14.5 km/h 30.6 km/h 78% 0 mm
18:39 -6.2 °C -9.4 °C 1002.6 hPa West 20.9 km/h 32.2 km/h 78% 0 mm
18:44 -6.2 °C -9.4 °C 1002.6 hPa WNW 19.3 km/h 33.8 km/h 78% 0 mm
18:49 -6.2 °C -9.6 °C 1002.9 hPa NW 17.7 km/h 33.8 km/h 77% 0 mm
18:54 -6.2 °C -9.6 °C 1003.3 hPa WNW 19.3 km/h 33.8 km/h 77% 0 mm
19:04 -6.1 °C -9.7 °C 1003.3 hPa WNW 14.5 km/h 29 km/h 76% 0 mm
19:09 -6.1 °C -9.6 °C 1003.6 hPa WNW 16.1 km/h 37 km/h 76% 0 mm
19:14 -6.1 °C -9.6 °C 1003.9 hPa WNW 16.1 km/h 37 km/h 76% 0 mm
19:19 -6.1 °C -9.8 °C 1003.9 hPa WNW 17.7 km/h 35.4 km/h 75% 0 mm
19:24 -6.1 °C -9.8 °C 1003.9 hPa WNW 19.3 km/h 33.8 km/h 75% 0 mm
19:34 -6.1 °C -9.9 °C 1004.3 hPa WNW 16.1 km/h 29 km/h 74% 0 mm
19:39 -6.1 °C -9.9 °C 1004.6 hPa WNW 20.9 km/h 40.2 km/h 74% 0 mm
19:44 -6 °C -10.1 °C 1004.6 hPa NW 11.3 km/h 40.2 km/h 73% 0 mm
19:49 -6.1 °C -9.9 °C 1004.6 hPa WNW 14.5 km/h 30.6 km/h 74% 0 mm
19:54 -6.1 °C -10.1 °C 1005 hPa WNW 19.3 km/h 33.8 km/h 73% 0 mm
19:59 -6.1 °C -10.3 °C 1005 hPa NW 16.1 km/h 45.1 km/h 72% 0 mm
20:04 -6.1 °C -10.3 °C 1005.3 hPa NW 19.3 km/h 45.1 km/h 72% 0 mm
20:09 -6.1 °C -10.3 °C 1005.3 hPa NW 12.9 km/h 37 km/h 72% 0 mm
20:14 -6.1 °C -10.3 °C 1005.6 hPa WNW 20.9 km/h 37 km/h 72% 0 mm
20:19 -6.1 °C -10.3 °C 1005.6 hPa NW 17.7 km/h 35.4 km/h 72% 0 mm
20:24 -6.2 °C -10.6 °C 1006.3 hPa WNW 25.7 km/h 45.1 km/h 71% 0 mm
20:29 -6.2 °C -10.4 °C 1006.3 hPa WNW 14.5 km/h 45.1 km/h 72% 0 mm
20:34 -6.2 °C -10.4 °C 1006.3 hPa WNW 22.5 km/h 41.8 km/h 72% 0 mm
20:39 -6.3 °C -10.6 °C 1006.7 hPa WNW 20.9 km/h 41.8 km/h 72% 0 mm
20:44 -6.4 °C -10.4 °C 1006.7 hPa WNW 14.5 km/h 35.4 km/h 73% 0 mm
20:49 -6.5 °C -10.4 °C 1007 hPa WNW 22.5 km/h 37 km/h 74% 0 mm
20:59 -6.7 °C -10.3 °C 1007.3 hPa NW 19.3 km/h 37 km/h 75% 0 mm
21:04 -6.7 °C -10.4 °C 1007.7 hPa WNW 25.7 km/h 38.6 km/h 75% 0 mm
21:09 -6.8 °C -10.3 °C 1007.7 hPa NW 16.1 km/h 38.6 km/h 76% 0 mm
21:14 -6.8 °C -10.2 °C 1008 hPa WNW 14.5 km/h 29 km/h 77% 0 mm
21:19 -6.9 °C -10.3 °C 1008 hPa WNW 14.5 km/h 32.2 km/h 77% 0 mm
21:24 -7 °C -10.3 °C 1008.4 hPa NW 14.5 km/h 33.8 km/h 77% 0 mm
21:34 -7.1 °C -10.3 °C 1008.7 hPa WNW 16.1 km/h 35.4 km/h 78% 0 mm
21:44 -7.2 °C -10.2 °C 1008.7 hPa NW 8 km/h 27.4 km/h 79% 0 mm
21:49 -7.2 °C -10.2 °C 1009 hPa WNW 9.7 km/h 27.4 km/h 79% 0 mm
21:59 -7.3 °C -10.3 °C 1009.4 hPa WNW 14.5 km/h 33.8 km/h 79% 0 mm
22:04 -7.3 °C -10.5 °C 1009.4 hPa WNW 11.3 km/h 33.8 km/h 78% 0 mm
22:09 -7.4 °C -10.6 °C 1009.4 hPa WNW 16.1 km/h 32.2 km/h 78% 0 mm
22:14 -7.4 °C -10.7 °C 1009.7 hPa WNW 19.3 km/h 32.2 km/h 77% 0 mm
22:19 -7.4 °C -10.9 °C 1009.7 hPa WNW 16.1 km/h 29 km/h 76% 0 mm
22:24 -7.3 °C -11.2 °C 1009.7 hPa WNW 19.3 km/h 32.2 km/h 74% 0 mm
22:29 -7.3 °C -11.2 °C 1009.7 hPa WNW 16.1 km/h 32.2 km/h 74% 0 mm
22:34 -7.3 °C -11.3 °C 1010 hPa WNW 17.7 km/h 30.6 km/h 73% 0 mm
22:39 -7.3 °C -11.2 °C 1010 hPa WNW 17.7 km/h 30.6 km/h 74% 0 mm
22:44 -7.4 °C -11.2 °C 1010 hPa NW 11.3 km/h 32.2 km/h 74% 0 mm
22:49 -7.5 °C -11.3 °C 1010 hPa NW 16.1 km/h 33.8 km/h 74% 0 mm
22:54 -7.6 °C -11.4 °C 1010.4 hPa NW 16.1 km/h 33.8 km/h 74% 0 mm
22:59 -7.6 °C -11.4 °C 1010.4 hPa NW 12.9 km/h 33.8 km/h 74% 0 mm
23:04 -7.7 °C -11.7 °C 1010.7 hPa NW 17.7 km/h 33.8 km/h 73% 0 mm
23:09 -7.8 °C -11.9 °C 1010.7 hPa NW 14.5 km/h 33.8 km/h 72% 0 mm
23:14 -7.8 °C -12.1 °C 1010.7 hPa WNW 14.5 km/h 30.6 km/h 71% 0 mm
23:19 -7.8 °C -12.1 °C 1010.7 hPa WNW 12.9 km/h 30.6 km/h 71% 0 mm
23:24 -7.8 °C -12.2 °C 1011.1 hPa NW 11.3 km/h 27.4 km/h 71% 0 mm
23:29 -7.8 °C -12.2 °C 1011.1 hPa NNW 14.5 km/h 35.4 km/h 71% 0 mm
23:34 -7.9 °C -12.4 °C 1011.4 hPa NW 16.1 km/h 38.6 km/h 70% 0 mm
23:39 -7.9 °C -12.6 °C 1011.4 hPa WNW 20.9 km/h 38.6 km/h 69% 0 mm
23:44 -8.1 °C -12.6 °C 1011.7 hPa NW 16.1 km/h 37 km/h 70% 0 mm
23:49 -8.1 °C -12.6 °C 1011.7 hPa NW 9.7 km/h 29 km/h 70% 0 mm
23:54 -8.2 °C -12.7 °C 1011.7 hPa WNW 12.9 km/h 29 km/h 70% 0 mm
23:59 -8.2 °C -12.7 °C 1012.1 hPa NW 8 km/h 29 km/h 70% 0 mm
Westford Weather
Compliments of Weather Underground

 
 
Current Radar Loop:

Copyright © WestfordWeather.net 2007-2014. All rights reserved.